CW7443 Weather Reports


Display with metric or nautical units.
time (UTC)temp
F
wind
direction
speed
MPH
gust
MPH
rain 1hr
in
rain 24hr
in
rain mn
in
humidity
%
barometer
mb
20260510222827 64 49 0.0 3.0 0.00 0.00 0.00 42 1017.8
20260510222332 65 157 0.0 3.0 0.00 0.00 0.00 41 1017.8
20260510221820 65 184 0.0 3.0 0.00 0.00 0.00 43 1017.8
20260510221327 65 31 0.0 1.0 0.00 0.00 0.00 42 1017.4
20260510220833 65 37 0.0 3.0 0.00 0.00 0.00 40 1017.4
20260510220322 65 31 0.0 3.0 0.00 0.00 0.00 40 1017.4
20260510215846 65 32 1.0 4.0 0.00 0.00 0.00 38 1017.2
20260510215315 66 39 1.0 4.0 0.00 0.00 0.00 37 1017.2
20260510214824 67 34 0.0 2.0 0.00 0.00 0.00 37 1017.2
20260510214331 67 64 0.0 2.0 0.00 0.00 0.00 40 1016.8
20260510213837 67 64 0.0 2.0 0.00 0.00 0.00 37 1016.8
20260510213323 66 43 0.0 3.0 0.00 0.00 0.00 38 1016.8
20260510212822 66 42 1.0 3.0 0.00 0.00 0.00 37 1016.7
20260510212329 67 68 0.0 3.0 0.00 0.00 0.00 40 1016.7
20260510211834 66 40 0.0 3.0 0.00 0.00 0.00 38 1016.7
20260510211321 66 38 1.0 4.0 0.00 0.00 0.00 36 1016.7
20260510210828 67 28 1.0 4.0 0.00 0.00 0.00 35 1016.7
20260510210337 68 38 0.0 4.0 0.00 0.00 0.00 38 1016.7
20260510205822 68 41 0.0 2.0 0.00 0.00 0.00 35 1016.7
20260510205328 68 39 0.0 2.0 0.00 0.00 0.00 36 1016.7
20260510204834 68 54 0.0 1.0 0.00 0.00 0.00 39 1016.7
20260510204319 68 28 0.0 3.0 0.00 0.00 0.00 37 1016.7
20260510203824 68 28 0.0 3.0 0.00 0.00 0.00 37 1016.7
20260510203312 68 33 1.0 3.0 0.00 0.00 0.00 41 1016.7
20260510202821 68 157 0.0 3.0 0.00 0.00 0.00 39 1016.7
20260510202326 68 343 0.0 3.0 0.00 0.00 0.00 47 1016.7
20260510201832 67 83 1.0 3.0 0.00 0.00 0.00 41 1016.7
20260510201319 68 26 1.0 2.0 0.00 0.00 0.00 41 1016.7
20260510200824 67 28 0.0 2.0 0.00 0.00 0.00 46 1016.7
20260510200349 67 27 1.0 4.0 0.00 0.00 0.00 46 1016.7
20260510195830 67 26 1.0 4.0 0.00 0.00 0.00 46 1016.7
20260510195319 67 44 0.0 0.0 0.00 0.00 0.00 47 1016.7
20260510194826 66 44 0.0 3.0 0.00 0.00 0.00 46 1016.7
20260510194330 66 44 0.0 3.0 0.00 0.00 0.00 50 1016.9
20260510193834 65 42 0.0 3.0 0.00 0.00 0.00 52 1016.9
20260510193342 64 32 1.0 3.0 0.00 0.00 0.00 51 1016.9
20260510192825 64 154 0.0 1.0 0.00 0.00 0.00 48 1016.9
20260510192331 65 55 0.0 2.0 0.00 0.00 0.00 49 1016.9
20260510191815 66 55 0.0 2.0 0.00 0.00 0.00 49 1016.9
20260510191329 66 55 0.0 0.0 0.00 0.00 0.00 48 1016.7
20260510190835 67 55 0.0 4.0 0.00 0.00 0.00 48 1016.7
20260510190322 67 55 0.0 4.0 0.00 0.00 0.00 50 1016.7
20260510185826 67 58 0.0 3.0 0.00 0.00 0.00 49 1016.7
20260510185331 67 64 1.0 3.0 0.00 0.00 0.00 48 1016.7
20260510184814 68 43 0.0 0.0 0.00 0.00 0.00 44 1016.7
20260510184319 67 44 0.0 1.0 0.00 0.00 0.00 53 1016.7
20260510183827 67 45 0.0 2.0 0.00 0.00 0.00 51 1016.7
20260510183331 67 55 1.0 4.0 0.00 0.00 0.00 47 1016.7
20260510182836 66 32 0.0 4.0 0.00 0.00 0.00 47 1016.8
20260510182321 67 180 0.0 3.0 0.00 0.00 0.00 45 1016.8
20260510181847 66 180 0.0 2.0 0.00 0.00 0.00 53 1016.8
20260510181333 66 180 0.0 3.0 0.00 0.00 0.00 47 1016.5
20260510180818 65 180 0.0 3.0 0.00 0.00 0.00 47 1016.5
20260510180327 65 33 0.0 3.0 0.00 0.00 0.00 48 1016.5
20260510175834 65 30 0.0 2.0 0.00 0.00 0.00 46 1016.3
20260510175319 65 29 1.0 4.0 0.00 0.00 0.00 47 1016.3
20260510174845 64 30 1.0 4.0 0.00 0.00 0.00 53 1016.3
20260510174329 64 40 0.0 4.0 0.00 0.00 0.00 51 1016.7
20260510173834 64 42 0.0 4.0 0.00 0.00 0.00 50 1016.7
20260510173317 64 45 1.0 4.0 0.00 0.00 0.00 47 1016.7
20260510172821 64 48 1.0 2.0 0.00 0.00 0.00 49 1016.6
20260510172347 64 48 1.0 2.0 0.00 0.00 0.00 50 1016.6
20260510171815 64 45 0.0 4.0 0.00 0.00 0.00 50 1016.6
20260510171344 64 49 1.0 4.0 0.00 0.00 0.00 47 1016.7
20260510170828 64 46 1.0 4.0 0.00 0.00 0.00 50 1016.7
20260510170314 63 51 1.0 4.0 0.00 0.00 0.00 48 1016.7
20260510165822 63 48 1.0 4.0 0.00 0.00 0.00 47 1016.7
20260510165327 64 51 1.0 4.0 0.00 0.00 0.00 47 1016.7
20260510164817 64 38 1.0 4.0 0.00 0.00 0.00 47 1016.7
20260510164318 63 31 0.0 3.0 0.00 0.00 0.00 45 1016.7
20260510163825 63 30 0.0 2.0 0.00 0.00 0.00 47 1016.7
20260510163331 63 32 1.0 2.0 0.00 0.00 0.00 46 1016.7
20260510162835 63 41 0.0 3.0 0.00 0.00 0.00 46 1016.7
20260510162324 63 41 1.0 3.0 0.00 0.00 0.00 47 1016.7
20260510161833 63 30 0.0 3.0 0.00 0.00 0.00 45 1016.7
20260510161337 62 30 1.0 3.0 0.00 0.00 0.00 48 1016.5
20260510160822 62 17 0.0 2.0 0.00 0.00 0.00 50 1016.5
20260510160331 62 17 0.0 5.0 0.00 0.00 0.00 55 1016.5
20260510155837 61 13 0.0 5.0 0.00 0.00 0.00 50 1016.4
20260510155321 61 25 0.0 2.0 0.00 0.00 0.00 58 1016.4
20260510154838 60 27 0.0 2.0 0.00 0.00 0.00 58 1016.4
20260510154356 60 27 0.0 2.0 0.00 0.00 0.00 57 1016.2
20260510153821 60 27 0.0 2.0 0.00 0.00 0.00 55 1016.2
20260510153329 60 30 0.0 2.0 0.00 0.00 0.00 58 1016.2
20260510152833 60 30 0.0 2.0 0.00 0.00 0.00 58 1016.1
20260510152321 60 30 0.0 2.0 0.00 0.00 0.00 60 1016.1
20260510151818 59 30 0.0 4.0 0.00 0.00 0.00 58 1016.1
20260510151324 59 30 1.0 4.0 0.00 0.00 0.00 59 1015.9
20260510150834 59 36 0.0 2.0 0.00 0.00 0.00 62 1015.9
20260510150340 58 36 0.0 2.0 0.00 0.00 0.00 59 1015.9
20260510145823 58 37 0.0 2.0 0.00 0.00 0.00 60 1015.6
20260510145327 58 34 0.0 3.0 0.00 0.00 0.00 62 1015.6
20260510144837 58 34 0.0 3.0 0.00 0.00 0.00 61 1015.6
20260510144323 57 34 1.0 3.0 0.00 0.00 0.00 60 1015.4
20260510143829 57 301 0.0 0.0 0.00 0.00 0.00 62 1015.4
20260510143335 57 350 0.0 0.0 0.00 0.00 0.00 62 1015.4
20260510142815 57 350 0.0 0.0 0.00 0.00 0.00 63 1015.2
20260510142327 57 349 0.0 2.0 0.00 0.00 0.00 62 1015.2
20260510141815 57 350 0.0 2.0 0.00 0.00 0.00 65 1015.2
20260510141318 56 349 0.0 0.0 0.00 0.00 0.00 62 1015.4
20260510140826 56 349 0.0 0.0 0.00 0.00 0.00 64 1015.4
20260510140330 56 349 0.0 0.0 0.00 0.00 0.00 65 1015.4
20260510135857 55 349 0.0 0.0 0.00 0.00 0.00 64 1015.1
20260510135320 55 349 0.0 1.0 0.00 0.00 0.00 65 1015.1
20260510134825 55 349 0.0 1.0 0.00 0.00 0.00 65 1015.1
20260510134327 55 349 0.0 2.0 0.00 0.00 0.00 65 1015.1
20260510133832 54 349 0.0 2.0 0.00 0.00 0.00 67 1015.1
20260510133316 54 349 0.0 0.0 0.00 0.00 0.00 67 1015.1
20260510132824 54 349 0.0 0.0 0.00 0.00 0.00 69 1015.0
20260510132349 54 349 0.0 0.0 0.00 0.00 0.00 67 1015.0
20260510131834 54 349 0.0 0.0 0.00 0.00 0.00 69 1015.0
20260510131318 53 349 0.0 0.0 0.00 0.00 0.00 69 1014.6
20260510130823 53 349 0.0 0.0 0.00 0.00 0.00 69 1014.6
20260510130328 53 349 0.0 0.0 0.00 0.00 0.00 69 1014.6
20260510125830 53 349 0.0 0.0 0.00 0.00 0.00 70 1014.4
20260510125313 53 349 0.0 0.0 0.00 0.00 0.00 72 1014.4
20260510124824 53 349 0.0 0.0 0.00 0.00 0.00 72 1014.4
20260510124327 53 349 0.0 0.0 0.00 0.00 0.00 72 1014.4
20260510123856 53 349 0.0 0.0 0.00 0.00 0.00 72 1014.4
20260510123340 53 349 0.0 0.0 0.00 0.00 0.00 70 1014.4
20260510122824 53 349 0.0 0.0 0.00 0.00 0.00 70 1014.3
20260510122333 53 349 0.0 0.0 0.00 0.00 0.00 71 1014.3
20260510121822 53 349 0.0 2.0 0.00 0.00 0.00 71 1014.3
20260510121324 53 349 0.0 2.0 0.00 0.00 0.00 71 1014.1
20260510120829 53 349 0.0 0.0 0.00 0.00 0.00 71 1014.1
20260510120335 53 349 0.0 0.0 0.00 0.00 0.00 72 1014.1
20260510115836 53 349 0.0 0.0 0.00 0.00 0.00 73 1014.0
20260510115348 53 349 0.0 0.0 0.00 0.00 0.00 74 1014.0
20260510114832 53 349 0.0 0.0 0.00 0.00 0.00 74 1014.0
20260510114336 53 349 0.0 0.0 0.00 0.00 0.00 74 1013.4
20260510113820 53 349 0.0 0.0 0.00 0.00 0.00 75 1013.4
20260510113325 53 349 0.0 0.0 0.00 0.00 0.00 76 1013.4
20260510112829 53 349 0.0 0.0 0.00 0.00 0.00 75 1013.1
20260510112320 53 349 0.0 0.0 0.00 0.00 0.00 75 1013.1
20260510111845 53 349 0.0 0.0 0.00 0.00 0.00 75 1013.1
20260510111330 53 349 0.0 0.0 0.00 0.00 0.00 75 1013.0
20260510110819 53 349 0.0 0.0 0.00 0.00 0.00 75 1013.0
20260510110342 53 349 0.0 0.0 0.00 0.00 0.00 77 1013.0
20260510105824 54 349 0.0 0.0 0.00 0.00 0.00 78 1012.7
20260510105329 54 349 0.0 0.0 0.00 0.00 0.00 79 1012.7
20260510104815 54 349 0.0 0.0 0.00 0.00 0.00 79 1012.7
20260510104331 54 349 0.0 0.0 0.00 0.00 0.00 80 1012.4
20260510103856 54 349 0.0 0.0 0.00 0.00 0.00 80 1012.4
20260510103318 54 340 0.0 0.0 0.00 0.00 0.00 80 1012.4
20260510102820 54 340 0.0 0.0 0.00 0.00 0.00 80 1012.0
20260510102326 55 340 0.0 0.0 0.00 0.00 0.00 81 1012.0
20260510101852 55 340 0.0 0.0 0.00 0.00 0.00 82 1012.0
20260510101335 55 340 0.0 0.0 0.00 0.00 0.00 82 1011.9
20260510100825 55 340 0.0 0.0 0.00 0.00 0.00 82 1011.9
20260510100330 55 340 0.0 0.0 0.00 0.00 0.00 82 1011.9
20260510095832 55 340 0.0 0.0 0.00 0.00 0.00 82 1011.4
20260510095337 56 340 0.0 0.0 0.00 0.00 0.00 82 1011.4
20260510094842 56 340 0.0 1.0 0.00 0.00 0.00 82 1011.4
20260510094328 56 340 0.0 1.0 0.00 0.00 0.00 82 1011.3
20260510093854 56 340 0.0 0.0 0.00 0.00 0.00 82 1011.3
20260510093321 56 340 0.0 0.0 0.00 0.00 0.00 82 1011.3
20260510092827 56 340 0.0 0.0 0.00 0.00 0.00 81 1010.8
20260510092317 56 340 0.0 0.0 0.00 0.00 0.00 82 1010.8
20260510091826 56 340 0.0 0.0 0.00 0.00 0.00 81 1010.8
20260510091330 56 340 0.0 0.0 0.00 0.00 0.00 82 1010.7
20260510090839 57 340 0.0 0.0 0.00 0.00 0.00 82 1010.7
20260510090323 57 340 0.0 0.0 0.00 0.00 0.00 82 1010.7
20260510085826 57 340 0.0 0.0 0.00 0.00 0.00 82 1010.2
20260510085333 57 340 0.0 0.0 0.00 0.00 0.00 82 1010.2
20260510084822 57 340 0.0 0.0 0.00 0.00 0.00 82 1010.2
20260510084325 57 339 0.0 0.0 0.00 0.00 0.00 82 1009.9
20260510083832 57 339 0.0 0.0 0.00 0.00 0.00 81 1009.9
20260510083314 57 339 0.0 0.0 0.00 0.00 0.00 80 1009.9
20260510082837 58 339 0.0 1.0 0.00 0.00 0.00 79 1009.8
20260510082339 58 338 0.0 4.0 0.00 0.00 0.00 79 1009.8
20260510081823 58 51 0.0 4.0 0.00 0.00 0.00 78 1009.8
20260510081325 58 112 0.0 0.0 0.00 0.00 0.00 78 1009.7
20260510080834 58 112 0.0 0.0 0.00 0.00 0.00 78 1009.7
20260510080322 58 112 0.0 0.0 0.00 0.00 0.00 78 1009.7
20260510075824 58 112 0.0 0.0 0.00 0.00 0.00 78 1010.0
20260510075336 58 112 0.0 0.0 0.00 0.00 0.00 79 1010.0
20260510074821 58 112 0.0 0.0 0.00 0.00 0.00 78 1010.0
20260510074327 58 112 0.0 0.0 0.00 0.00 0.00 80 1009.7
20260510073830 58 112 0.0 0.0 0.00 0.00 0.00 80 1009.7
20260510073317 58 112 0.0 0.0 0.00 0.00 0.00 77 1009.7
20260510072817 59 112 0.0 1.0 0.00 0.00 0.00 76 1009.8
20260510072323 59 112 0.0 1.0 0.00 0.00 0.00 77 1009.8
20260510071834 59 112 0.0 0.0 0.00 0.00 0.00 76 1009.8
20260510071336 59 112 0.0 0.0 0.00 0.00 0.00 76 1009.7
20260510070820 60 112 0.0 0.0 0.00 0.00 0.00 75 1009.7
20260510070346 60 112 0.0 0.0 0.00 0.00 0.00 75 1009.7
20260510065827 61 112 0.0 0.0 0.00 0.01 0.00 72 1009.7
20260510065331 61 112 0.0 0.0 0.00 0.01 0.00 71 1009.7
20260510064815 61 112 0.0 0.0 0.00 0.01 0.00 71 1009.7
20260510064319 61 112 0.0 3.0 0.00 0.01 0.00 71 1009.9
20260510063822 61 160 0.0 4.0 0.00 0.01 0.00 72 1009.9
20260510063349 61 107 1.0 4.0 0.00 0.01 0.00 72 1009.9
20260510062831 61 111 0.0 5.0 0.00 0.01 0.00 74 1010.2
20260510062356 61 152 1.0 6.0 0.00 0.01 0.00 75 1010.2
20260510061822 61 107 1.0 6.0 0.00 0.01 0.00 75 1010.2
20260510061324 61 164 0.0 5.0 0.00 0.01 0.00 75 1010.2
20260510060832 61 136 1.0 4.0 0.00 0.01 0.00 76 1010.2
20260510060318 61 97 1.0 4.0 0.00 0.01 0.00 76 1010.2
20260510055823 61 130 1.0 4.0 0.00 0.02 0.00 77 1009.8
20260510055349 61 158 0.0 3.0 0.00 0.02 0.00 76 1009.8
20260510054853 61 158 0.0 3.0 0.00 0.02 0.00 76 1009.8
20260510054317 61 134 0.0 4.0 0.00 0.02 0.00 75 1009.8
20260510053823 62 184 0.0 4.0 0.00 0.02 0.00 75 1009.8
20260510053327 62 132 0.0 4.0 0.00 0.02 0.00 75 1009.8
20260510052833 62 158 0.0 5.0 0.00 0.02 0.00 75 1009.6
20260510052317 62 150 0.0 5.0 0.00 0.02 0.00 74 1009.6
20260510051843 62 144 0.0 6.0 0.00 0.02 0.00 74 1009.6
20260510051323 61 148 1.0 6.0 0.00 0.02 0.00 75 1009.7
20260510050830 61 164 0.0 4.0 0.00 0.02 0.00 75 1009.7
20260510050319 61 126 0.0 4.0 0.00 0.02 0.00 75 1009.7
20260510045824 61 98 0.0 6.0 0.00 0.02 0.00 75 1009.5
20260510045329 61 153 1.0 6.0 0.00 0.02 0.00 75 1009.5
20260510044833 61 146 1.0 5.0 0.00 0.02 0.00 74 1009.5
20260510044335 61 144 1.0 5.0 0.00 0.02 0.00 75 1009.5
20260510043820 61 139 0.0 3.0 0.00 0.02 0.00 75 1009.5
20260510043326 60 134 1.0 3.0 0.00 0.02 0.00 75 1009.5
20260510042831 60 317 0.0 3.0 0.00 0.02 0.00 75 1009.2
20260510042336 60 198 0.0 0.0 0.00 0.02 0.00 76 1009.2
20260510041821 60 198 0.0 0.0 0.00 0.02 0.00 75 1009.2
20260510041331 60 198 0.0 2.0 0.00 0.02 0.00 76 1009.2
20260510040835 60 198 0.0 2.0 0.00 0.02 0.00 75 1009.2
20260510040320 59 123 0.0 0.0 0.00 0.02 0.00 78 1009.2
20260510035824 59 123 0.0 0.0 0.00 0.02 0.02 77 1009.2
20260510035331 59 123 0.0 0.0 0.00 0.02 0.02 79 1009.2
20260510034839 59 123 0.0 0.0 0.00 0.02 0.02 81 1009.2
20260510034320 60 123 0.0 0.0 0.00 0.02 0.02 80 1009.0
20260510033844 60 123 0.0 0.0 0.00 0.02 0.02 79 1009.0
20260510033329 60 123 0.0 0.0 0.00 0.02 0.02 77 1009.0
20260510032831 60 123 0.0 0.0 0.00 0.02 0.02 77 1008.9
20260510032336 60 123 0.0 1.0 0.00 0.02 0.02 75 1008.9
20260510031840 60 123 0.0 1.0 0.00 0.02 0.02 75 1008.9
20260510031322 61 123 0.0 0.0 0.00 0.02 0.02 76 1008.8
20260510030829 61 123 0.0 0.0 0.00 0.02 0.02 77 1008.8
20260510030338 61 123 0.0 0.0 0.00 0.02 0.02 75 1008.8
20260510025821 61 123 0.0 0.0 0.00 0.02 0.02 77 1008.8
20260510025346 61 123 0.0 0.0 0.00 0.02 0.02 75 1008.8
20260510024831 61 123 0.0 0.0 0.00 0.02 0.02 76 1008.8
20260510024336 61 123 0.0 0.0 0.00 0.02 0.02 75 1008.7
20260510023820 61 146 0.0 3.0 0.00 0.02 0.02 75 1008.7
20260510023326 60 146 0.0 3.0 0.00 0.02 0.02 74 1008.7
20260510022832 60 100 0.0 0.0 0.00 0.02 0.02 76 1008.6
20260510022337 60 100 0.0 0.0 0.00 0.02 0.02 75 1008.6
20260510021823 60 100 0.0 0.0 0.00 0.02 0.02 75 1008.6
20260510021326 61 100 0.0 0.0 0.00 0.02 0.02 74 1008.4
20260510020815 61 100 0.0 0.0 0.00 0.02 0.02 72 1008.4
20260510020327 62 100 0.0 0.0 0.00 0.02 0.02 72 1008.4
20260510015828 62 100 0.0 0.0 0.00 0.02 0.02 72 1008.1
20260510015336 62 99 0.0 0.0 0.00 0.02 0.02 70 1008.1
20260510014819 63 113 0.0 0.0 0.00 0.02 0.02 69 1008.1
20260510014323 63 113 0.0 1.0 0.00 0.02 0.02 69 1008.1
20260510013828 63 113 0.0 1.0 0.00 0.02 0.02 68 1008.1
20260510013334 63 167 0.0 1.0 0.00 0.02 0.02 68 1008.1
20260510012838 64 167 0.0 0.0 0.00 0.02 0.02 67 1007.6
20260510012324 64 167 0.0 0.0 0.00 0.02 0.02 66 1007.6
20260510011830 64 148 0.0 0.0 0.00 0.02 0.02 65 1007.6
20260510011320 64 148 0.0 0.0 0.00 0.02 0.02 65 1007.7
20260510010825 64 148 0.0 1.0 0.00 0.02 0.02 65 1007.7
20260510010331 64 148 0.0 1.0 0.00 0.02 0.02 65 1007.7
20260510005833 65 148 0.0 1.0 0.00 0.02 0.02 66 1007.6
20260510005338 65 148 0.0 0.0 0.00 0.02 0.02 63 1007.6
20260510004824 66 148 0.0 2.0 0.00 0.02 0.02 62 1007.6
20260510004330 66 204 0.0 2.0 0.00 0.02 0.02 61 1007.5
20260510003838 66 360 0.0 2.0 0.00 0.02 0.02 61 1007.5
20260510003320 66 360 0.0 5.0 0.00 0.02 0.02 60 1007.5
20260510002821 67 169 0.0 5.0 0.00 0.02 0.02 59 1007.1
20260510002327 67 170 1.0 5.0 0.00 0.02 0.02 58 1007.1
20260510001836 67 149 0.0 1.0 0.00 0.02 0.02 58 1007.1
20260510001322 67 148 0.0 2.0 0.00 0.02 0.02 57 1007.0
20260510000828 68 149 0.0 3.0 0.00 0.02 0.02 56 1007.0
20260510000335 68 124 1.0 3.0 0.00 0.02 0.02 56 1007.0
20260509235838 68 198 1.0 4.0 0.00 0.02 0.02 56 1007.0
20260509235343 68 148 1.0 6.0 0.00 0.02 0.02 56 1007.0
20260509234828 68 157 2.0 6.0 0.00 0.02 0.02 57 1007.0
20260509234330 68 133 1.0 4.0 0.00 0.02 0.02 58 1006.9
20260509233839 68 115 1.0 5.0 0.00 0.02 0.02 58 1006.9
20260509233323 68 101 1.0 7.0 0.00 0.02 0.02 57 1006.9
20260509232826 68 161 1.0 7.0 0.00 0.02 0.02 57 1006.6
20260509232335 69 254 0.0 6.0 0.00 0.02 0.02 57 1006.6
20260509231823 69 240 2.0 8.0 0.00 0.02 0.02 56 1006.6
20260509231326 69 161 1.0 8.0 0.00 0.02 0.02 56 1006.6
20260509230831 69 142 3.0 9.0 0.00 0.02 0.02 56 1006.6
20260509230317 69 290 2.0 9.0 0.00 0.02 0.02 55 1006.6
20260509225843 69 147 2.0 11.0 0.00 0.02 0.02 55 1006.5
20260509225330 69 153 1.0 11.0 0.00 0.02 0.02 54 1006.5
20260509224819 69 240 2.0 6.0 0.00 0.02 0.02 54 1006.5
20260509224343 69 54 1.0 5.0 0.00 0.02 0.02 57 1006.5
20260509223830 69 169 1.0 9.0 0.00 0.02 0.02 55 1006.5
20260509223319 69 197 1.0 9.0 0.00 0.02 0.02 55 1006.5